Volver al catálogo

STARLINK-37445

ActivoComunicacionesVLEO
NORAD 69165·PAYLOAD·🇺🇸 United States

Lanzado May 21, 2026 desde Cape Canaveral Space Force Station

Loading…

Próximos Pases (próximas 24 horas)

TLE

ActualizadoSource: CelesTrak SupGP

Época: Sep 14, 2026, 14:36 UTC

1 69165C 26111T   26257.60881944 -.00007122  00000+0 -21045-3 0  2575
2 69165  53.1578  93.2195 0001301 101.1867 306.3266 15.34387594    12

Sigue STARLINK-37445 en tiempo real con AllMySat

Download on the App Store